Location: Torrington
(42.0650°N, 104.1810°W)
Time: 10:32:16
(UTC-06:00)

Amateur Radio Satellites - All Passes

Search period start: 02 July 2015 10:02
Search period end: 03 July 2015 10:02
Location: Torrington, 42.0650°N, 104.1810°W

Satellite Date Start Highest point End Downlink Frequencies (MHz)
Time Altitude Azimuth
UWE-3 02 Jul 10:03:43 10:07:14 26° 95° (E) 10:10:51 435.000/436.395/437.385
CUTE 1.7 + AOD 2 02 Jul 10:03:50 10:08:02 56° 286° (WNW) 10:12:13 437.475
QB50P2 02 Jul 10:04:23 10:06:43 15° 65° (ENE) 10:09:14 145.880/145.840
POPSAT HIP 1 02 Jul 10:05:46 10:08:07 15° 65° (ENE) 10:10:36 437.405
CANX-2 02 Jul 10:06:51 10:10:59 46° 287° (WNW) 10:15:05 2200.000
ANTELSAT 02 Jul 10:10:54 10:14:52 39° 72° (ENE) 10:18:52 437.575/2403.000
DELFI C3 02 Jul 10:11:16 10:14:49 29° 95° (E) 10:18:23 145.870
DOVE 4 02 Jul 10:11:45 10:15:42 41° 288° (WNW) 10:19:35 437.250
AIST 2 02 Jul 10:19:02 10:22:54 32° 312° (NW) 10:26:46 435.215
TIGRISAT 02 Jul 10:24:11 10:28:21 52° 73° (ENE) 10:32:31 435.000
CUSAT 1 02 Jul 10:29:00 10:31:29 12° 293° (WNW) 10:33:24 437.405
HO-68 02 Jul 10:42:27 10:49:14 47° 294° (WNW) 10:55:57 435.675
QB50P1 02 Jul 10:43:19 10:47:12 36° 71° (ENE) 10:51:08 145.935-145.965
CUBEBUG 2 02 Jul 10:43:21 10:47:33 88° 283° (WNW) 10:51:49 437.445
DX 1 02 Jul 10:43:47 10:46:54 20° 92° (E) 10:50:08 434.975-435.025
ISS 02 Jul 10:43:54 10:46:48 29° 337° (NNW) 10:49:43 145.825
ZACube-1 02 Jul 10:56:26 11:00:39 80° 103° (ESE) 11:04:55 437.345
GOMX 1 02 Jul 10:56:36 10:57:01 10° 298° (WNW) 10:57:13 467.674
SEEDS 02 Jul 10:57:03 11:00:10 19° 293° (WNW) 11:03:10 437.485
NANOSAT C BR1 02 Jul 10:58:15 11:02:23 53° 74° (ENE) 11:06:31 145.865
UNISAT 6 02 Jul 11:02:49 11:07:03 55° 260° (W) 11:11:15 437.425
PHONESAT 2.4 02 Jul 11:05:04 11:08:19 40° 163° (SSE) 11:11:37 2401.200-2431.200
DUCHIFAT 1 02 Jul 11:06:00 11:10:11 64° 75° (ENE) 11:14:23 145.980
POLYITAN 1 02 Jul 11:07:51 11:12:05 71° 75° (ENE) 11:16:19 437.675
UKube-1 02 Jul 11:07:55 11:11:49 32° 97° (E) 11:15:43 .
AISAT 02 Jul 11:10:52 11:14:17 22° 93° (E) 11:17:45 437.250
Oscar 11 02 Jul 11:11:02 11:15:09 42° 288° (WNW) 11:19:14 145.826/435.025
AAUSAT CUBESAT 2 02 Jul 11:14:30 11:17:27 18° 293° (WNW) 11:20:17 437.432
CINEMA 3 02 Jul 11:16:19 11:19:20 19° 292° (WNW) 11:22:16 145.822/145.860
Cosmos 2499 02 Jul 11:18:51 11:25:50 67° 94° (E) 11:32:54 435.465 / 435.565
VERMONT LUNAR 02 Jul 11:22:34 11:25:42 66° 182° (S) 11:28:51 437.305
GONETS M04 02 Jul 11:23:52 11:31:26 30° 294° (WNW) 11:38:46
RS-15 02 Jul 11:30:19 11:41:57 68° 51° (NE) 11:54:04 29.354- 29.394
BUGSAT 1 02 Jul 11:33:48 11:38:03 87° 77° (ENE) 11:42:17 437.445
ESTCUBE 1 02 Jul 11:33:49 11:37:35 25° 94° (E) 11:41:23 437.505/2401.250
FUNcube-1 02 Jul 11:33:57 11:37:54 40° 288° (WNW) 11:41:52 145.935
HUMSAT D 02 Jul 11:35:26 11:39:36 87° 285° (WNW) 11:43:48 437.325/437.525
CUBEBUG 1 02 Jul 11:36:33 11:39:57 22° 93° (E) 11:43:24 437.445
QB50P2 02 Jul 11:38:05 11:42:14 52° 260° (W) 11:46:25 145.880/145.840
POPSAT HIP 1 02 Jul 11:39:27 11:43:36 52° 260° (W) 11:47:46 437.405
UWE-3 02 Jul 11:40:11 11:43:45 27° 290° (WNW) 11:47:17 435.000/436.395/437.385
DELFI C3 02 Jul 11:46:31 11:49:47 23° 291° (WNW) 11:52:59 145.870
ANTELSAT 02 Jul 11:48:48 11:51:52 18° 268° (W) 11:54:47 437.575/2403.000
VELOX 1 02 Jul 12:00:16 12:04:43 74° 102° (ESE) 12:09:06 145.980
TIGRISAT 02 Jul 12:03:14 12:05:30 14° 270° (W) 12:07:33 435.000
50 SAT 02 Jul 12:05:54 12:09:47 75° 285° (WNW) 12:13:42 437.505
DX 1 02 Jul 12:19:16 12:23:19 37° 290° (WNW) 12:27:18 434.975-435.025
QB50P1 02 Jul 12:20:05 12:23:13 19° 268° (W) 12:26:15 145.935-145.965
ISS 02 Jul 12:21:57 12:23:58 15° 357° (N) 12:25:58 145.825
NANOSAT C BR1 02 Jul 12:36:24 12:38:36 13° 271° (W) 12:40:35 145.865
PHONESAT 2.4 02 Jul 12:42:44 12:46:11 69° 180° (S) 12:49:39 2401.200-2431.200
UKube-1 02 Jul 12:44:20 12:47:49 23° 293° (WNW) 12:51:10 .
DUCHIFAT 1 02 Jul 12:45:07 12:46:30 11° 272° (W) 12:47:37 145.980
AISAT 02 Jul 12:46:56 12:50:58 34° 290° (WNW) 12:54:55 437.250
Oscar 19 02 Jul 12:47:07 12:51:37 33° 68° (ENE) 12:56:12 437.125/150
SPROUT 02 Jul 12:47:21 12:51:20 37° 97° (E) 12:55:19 437.525
ITAMSAT 1 02 Jul 12:56:25 12:58:20 12° 59° (ENE) 13:00:30 435.822/435.867
VERMONT LUNAR 02 Jul 12:59:31 13:02:27 34° 198° (SSW) 13:05:23 437.305
YUBILEINY 02 Jul 13:04:44 13:09:15 15° 56° (NE) 13:14:18 435.215
ESTCUBE 1 02 Jul 13:10:25 13:14:28 32° 291° (WNW) 13:18:27 437.505/2401.250
CUBEBUG 1 02 Jul 13:12:26 13:16:24 33° 290° (WNW) 13:20:16 437.445
Cosmos 2499 02 Jul 13:14:28 13:19:47 21° 296° (WNW) 13:24:53 435.465 / 435.565
TISAT 1 02 Jul 13:38:15 13:42:28 87° 285° (WNW) 13:46:38 437.305
VELOX 1 02 Jul 13:38:58 13:40:43 12° 298° (WNW) 13:42:15 145.980
RS-15 02 Jul 13:43:24 13:53:55 38° 252° (WSW) 14:04:28 29.354- 29.394
ISS 02 Jul 13:58:39 14:01:13 21° 17° (NNE) 14:03:49 145.825
Gurwin Techsat 1B 02 Jul 14:12:29 14:17:41 59° 73° (ENE) 14:22:56 435.225
PHONESAT 2.4 02 Jul 14:20:44 14:24:03 42° 196° (SSW) 14:27:22 2401.200-2431.200
SPROUT 02 Jul 14:24:02 14:27:12 20° 293° (WNW) 14:30:14 437.525
Oscar 19 02 Jul 14:26:24 14:30:59 31° 265° (W) 14:35:30 437.125/150
ITAMSAT 1 02 Jul 14:31:54 14:37:07 86° 78° (ENE) 14:42:24 435.822/435.867
BEESAT 02 Jul 14:34:59 14:39:44 58° 100° (E) 14:44:27 436.000
HORYU 2 02 Jul 14:49:42 14:52:39 18° 65° (ENE) 14:55:44 437.375
SWISSCUBE 02 Jul 14:50:11 14:55:01 89° 103° (ESE) 14:59:50 437.505
KKS-1 02 Jul 14:50:37 14:52:48 14° 89° (E) 14:55:13 437.445
ITUPSAT 1 02 Jul 14:54:21 14:59:13 88° 107° (ESE) 15:04:01 437.325
AO-7 02 Jul 14:56:22 15:03:54 41° 61° (ENE) 15:11:36 29.400- 29.500
YUBILEINY 02 Jul 14:59:15 15:08:02 74° 80° (E) 15:16:49 435.215
Cosmos 2491 02 Jul 15:19:46 15:28:07 51° 90° (E) 15:36:33 435.465 / 435.565
PCSat 02 Jul 15:21:36 15:25:04 18° 106° (ESE) 15:28:43 145.827
JAS-2 02 Jul 15:28:13 15:33:20 71° 74° (ENE) 15:38:41 435.910
ISS 02 Jul 15:34:43 15:37:58 86° 216° (SW) 15:41:12 145.825
STARS 02 Jul 15:46:56 15:50:54 33° 97° (E) 15:54:53 437.465
BEESAT 3 02 Jul 15:49:00 15:52:03 20° 43° (NE) 15:55:08 437.485
Gurwin Techsat 1B 02 Jul 15:54:30 15:58:08 18° 270° (W) 16:01:34 435.225
BEESAT 2 02 Jul 15:58:02 16:01:05 20° 43° (NE) 16:04:10 435.950
PHONESAT 2.4 02 Jul 15:59:47 16:01:36 13° 211° (SSW) 16:03:20 2401.200-2431.200
BEESAT 02 Jul 16:14:01 16:17:09 17° 297° (WNW) 16:20:07 436.000
ITAMSAT 1 02 Jul 16:15:39 16:17:26 11° 274° (W) 16:18:53 435.822/435.867
AIST 1 02 Jul 16:16:06 16:20:30 83° 95° (E) 16:24:56
HORYU 2 02 Jul 16:24:46 16:28:59 44° 261° (W) 16:33:15 437.375
KKS-1 02 Jul 16:25:31 16:29:52 55° 287° (WNW) 16:34:11 437.445
MOZHAYETS 4 02 Jul 16:27:48 16:30:44 17° 90° (E) 16:33:49
SWISSCUBE 02 Jul 16:30:33 16:32:14 11° 300° (WNW) 16:33:39 437.505
ITUPSAT 1 02 Jul 16:34:41 16:36:27 12° 300° (WNW) 16:37:59 437.325
AO-7 02 Jul 16:48:36 16:56:37 49° 260° (W) 17:04:38 29.400- 29.500
Cosmos 2504 02 Jul 16:50:12 16:57:25 44° 74° (ENE) 17:05:13 435.465 / 435.565
CUTE-I 02 Jul 16:53:52 16:56:35 15° 60° (ENE) 16:59:32 437.470
YUBILEINY 02 Jul 16:57:27 17:04:06 24° 278° (W) 17:10:23 435.215
AIST 2 02 Jul 17:01:54 17:05:17 23° 44° (NE) 17:08:42 435.215
PCSat 02 Jul 17:02:38 17:08:00 65° 302° (WNW) 17:13:26 145.827
JAS-2 02 Jul 17:16:54 17:19:19 13° 274° (W) 17:21:27 435.910
Cosmos 2491 02 Jul 17:17:13 17:25:17 37° 290° (WNW) 17:33:14 435.465 / 435.565
STARS 02 Jul 17:23:43 17:27:12 23° 293° (WNW) 17:30:34 437.465
Cubesat XI-IV 02 Jul 17:25:24 17:29:48 27° 66° (ENE) 17:34:19 437.490
BEESAT 3 02 Jul 17:26:21 17:30:15 45° 242° (WSW) 17:34:04 437.485
SO-50 02 Jul 17:28:07 17:32:42 55° 119° (ESE) 17:37:29 436.795
BEESAT 2 02 Jul 17:35:27 17:39:23 46° 242° (WSW) 17:43:15 435.950
O/OREOS (USA 219) 02 Jul 17:38:51 17:43:15 51° 63° (ENE) 17:47:42 437.305
MOZHAYETS 4 02 Jul 18:03:47 18:08:17 50° 287° (WNW) 18:12:46
CUBESAT XI-V 02 Jul 18:24:56 18:28:40 24° 93° (E) 18:32:29 437.345
CUTE-I 02 Jul 18:30:40 18:36:02 83° 256° (WSW) 18:41:27 437.470
AIST 2 02 Jul 18:40:04 18:44:02 40° 243° (WSW) 18:47:53 435.215
Cosmos 2504 02 Jul 18:43:48 18:50:46 38° 272° (W) 18:58:02 435.465 / 435.565
GOMX 1 02 Jul 18:49:06 18:50:25 11° 62° (ENE) 18:52:01 467.674
PCSat 02 Jul 18:49:54 18:52:36 13° 324° (NW) 18:55:06 145.827
BRITE-PL 02 Jul 18:59:51 19:04:09 25° 68° (ENE) 19:08:22 437.365/2234.400
Cubesat XI-IV 02 Jul 19:04:40 19:09:44 41° 262° (W) 19:14:48 437.490
SO-50 02 Jul 19:09:42 19:13:37 24° 319° (NW) 19:17:31 436.795
O/OREOS (USA 219) 02 Jul 19:19:32 19:22:18 16° 259° (W) 19:24:55 437.305
CUSAT 1 02 Jul 19:20:10 19:22:51 51° 78° (ENE) 19:25:23 437.405
HO-68 02 Jul 19:24:37 19:30:25 29° 60° (ENE) 19:36:22 435.675
CUTE 1.7 + AOD 2 02 Jul 19:24:50 19:25:34 11° 63° (ENE) 19:26:33 437.475
CANX-2 02 Jul 19:26:50 19:28:32 13° 64° (ENE) 19:30:27 2200.000
PRISM 02 Jul 19:32:13 19:36:03 34° 97° (E) 19:39:54 437.425
GONETS M04 02 Jul 19:35:25 19:42:50 31° 67° (ENE) 19:50:24
DOVE 4 02 Jul 19:40:43 19:44:18 21° 68° (ENE) 19:47:52 437.250
CUBESAT XI-V 02 Jul 20:01:55 20:06:13 36° 290° (WNW) 20:10:26 437.345
STRAND 1 02 Jul 20:07:14 20:12:26 83° 102° (ESE) 20:17:35 437.568
DANDE 02 Jul 20:10:09 20:12:55 37° 265° (W) 20:15:22 436.750
SEEDS 02 Jul 20:13:18 20:16:51 28° 70° (ENE) 20:20:29 437.485
GOMX 1 02 Jul 20:22:45 20:28:00 86° 74° (ENE) 20:32:56 467.674
AAUSAT CUBESAT 2 02 Jul 20:29:29 20:33:02 29° 70° (ENE) 20:36:39 437.432
Oscar 11 02 Jul 20:31:49 20:34:15 15° 65° (ENE) 20:36:52 145.826/435.025
BRITE-PL 02 Jul 20:37:07 20:42:27 46° 262° (W) 20:47:29 437.365/2234.400
CINEMA 3 02 Jul 20:40:31 20:44:41 37° 72° (ENE) 20:48:44 145.822/145.860
M-CUBED/EXP-1 PRIME 02 Jul 20:45:57 20:48:42 17° 98° (E) 20:51:41 437.505
COMPASS 1 02 Jul 20:53:14 20:57:19 63° 75° (ENE) 21:01:27 437.405
FUNcube-1 02 Jul 20:55:38 20:58:00 15° 66° (ENE) 21:00:30 145.935
CUTE 1.7 + AOD 2 02 Jul 20:56:44 21:00:56 76° 258° (WSW) 21:05:10 437.475
DELFI C3 02 Jul 20:59:31 21:02:22 19° 67° (ENE) 21:05:19 145.870
CANX-2 02 Jul 20:59:50 21:04:01 62° 260° (W) 21:08:13 2200.000
UWE-3 02 Jul 21:01:43 21:05:03 23° 69° (ENE) 21:08:25 435.000/436.395/437.385
PRISM 02 Jul 21:08:05 21:11:18 21° 293° (WNW) 21:14:25 437.425
Cosmos 2499 02 Jul 21:08:34 21:14:38 25° 66° (ENE) 21:21:18 435.465 / 435.565
HO-68 02 Jul 21:10:42 21:17:46 60° 258° (WSW) 21:24:50 435.675
DOVE 4 02 Jul 21:17:09 21:21:52 43° 262° (W) 21:26:19 437.250
GONETS M04 02 Jul 21:31:46 21:40:16 59° 268° (W) 21:48:40
DX 1 02 Jul 21:40:04 21:43:09 20° 66° (ENE) 21:46:22 434.975-435.025
CUBEBUG 2 02 Jul 21:41:50 21:46:10 81° 77° (ENE) 21:50:25 437.445
AUBIESAT-1 02 Jul 21:47:07 21:51:17 68° 107° (ESE) 21:55:44 437.475
STRAND 1 02 Jul 21:48:25 21:51:01 14° 300° (WNW) 21:53:22 437.568
SEEDS 02 Jul 21:49:12 21:52:39 24° 266° (W) 21:56:03 437.485
ZACube-1 02 Jul 21:52:43 21:56:54 65° 75° (ENE) 22:01:03 437.345
UKube-1 02 Jul 22:03:11 22:06:57 30° 69° (ENE) 22:10:47 .
GOMX 1 02 Jul 22:05:08 22:06:44 11° 273° (W) 22:07:59 467.674
AAUSAT CUBESAT 2 02 Jul 22:05:17 22:08:39 23° 267° (W) 22:11:58 437.432
Oscar 11 02 Jul 22:05:53 22:10:04 51° 260° (W) 22:14:17 145.826/435.025
AISAT 02 Jul 22:09:12 22:12:38 23° 67° (ENE) 22:16:09 437.250
TIGRISAT 02 Jul 22:18:10 22:18:36 10° 87° (E) 22:19:21 435.000
CINEMA 3 02 Jul 22:18:32 22:22:01 21° 267° (W) 22:25:18 145.822/145.860
M-CUBED/EXP-1 PRIME 02 Jul 22:19:41 22:23:40 46° 292° (WNW) 22:27:55 437.505
HUMSAT D 02 Jul 22:27:24 22:31:28 68° 75° (ENE) 22:35:33 437.325/437.525
FUNcube-1 02 Jul 22:29:54 22:34:00 48° 261° (W) 22:38:03 145.935
COMPASS 1 02 Jul 22:32:22 22:33:30 11° 273° (W) 22:34:23 437.405
CUBEBUG 1 02 Jul 22:33:19 22:36:37 21° 67° (ENE) 22:40:01 437.445
DELFI C3 02 Jul 22:33:35 22:37:15 33° 263° (W) 22:40:54 145.870
ESTCUBE 1 02 Jul 22:34:00 22:37:42 26° 68° (ENE) 22:41:29 437.505/2401.250
UWE-3 02 Jul 22:37:41 22:41:29 30° 264° (W) 22:45:12 435.000/436.395/437.385
50 SAT 02 Jul 22:50:11 22:53:58 62° 75° (ENE) 22:57:46 437.505
UNISAT 6 02 Jul 22:54:17 22:58:02 28° 95° (E) 23:01:53 437.425
POLYITAN 1 02 Jul 22:55:20 22:56:20 11° 88° (E) 22:57:36 437.675
VELOX 1 02 Jul 22:57:57 23:02:24 69° 74° (ENE) 23:06:52 145.980
Cosmos 2499 02 Jul 23:00:44 23:08:28 69° 266° (W) 23:16:46 435.465 / 435.565
DX 1 02 Jul 23:15:00 23:19:09 41° 262° (W) 23:23:18 434.975-435.025
BUGSAT 1 02 Jul 23:17:51 23:19:11 12° 88° (E) 23:20:46 437.445
QB50P2 02 Jul 23:23:23 23:26:46 23° 94° (E) 23:30:12 145.880/145.840
AUBIESAT-1 02 Jul 23:23:34 23:25:39 13° 300° (WNW) 23:27:38 437.475
POPSAT HIP 1 02 Jul 23:24:37 23:27:58 23° 94° (E) 23:31:24 437.405
ZACube-1 02 Jul 23:32:46 23:33:46 11° 272° (W) 23:34:31 437.345
ANTELSAT 02 Jul 23:38:19 23:42:42 85° 103° (ESE) 23:47:10 437.575/2403.000
UKube-1 02 Jul 23:39:29 23:43:06 25° 266° (W) 23:46:39 .
SPROUT 02 Jul 23:41:57 23:45:45 31° 70° (ENE) 23:49:36 437.525
AISAT 02 Jul 23:44:52 23:49:01 36° 263° (W) 23:53:09 437.250
TIGRISAT 02 Jul 23:51:34 23:55:55 72° 285° (WNW) 00:00:20 435.000
QB50P1 03 Jul 00:03:17 00:07:28 65° 101° (E) 00:11:38 145.935-145.965
PCSat 03 Jul 00:07:35 00:11:28 20° 42° (NE) 00:15:29 145.827
CUBEBUG 1 03 Jul 00:08:36 00:12:46 38° 263° (W) 00:16:54 437.445
ESTCUBE 1 03 Jul 00:10:22 00:14:27 32° 264° (W) 00:18:31 437.505/2401.250
NANOSAT C BR1 03 Jul 00:18:14 00:22:27 86° 285° (WNW) 00:26:39 145.865
SO-50 03 Jul 00:20:23 00:22:22 12° 31° (NNE) 00:24:30 436.795
SWISSCUBE 03 Jul 00:22:25 00:24:30 13° 61° (ENE) 00:26:48 437.505
DUCHIFAT 1 03 Jul 00:25:51 00:30:02 72° 286° (WNW) 00:34:12 145.980
ITUPSAT 1 03 Jul 00:26:50 00:28:55 13° 61° (ENE) 00:31:12 437.325
POLYITAN 1 03 Jul 00:28:34 00:32:45 64° 286° (WNW) 00:36:54 437.675
TISAT 1 03 Jul 00:30:23 00:34:37 73° 76° (ENE) 00:38:52 437.305
UNISAT 6 03 Jul 00:31:03 00:34:46 27° 291° (WNW) 00:38:29 437.425
VELOX 1 03 Jul 00:37:55 00:39:31 11° 272° (W) 00:40:49 145.980
BUGSAT 1 03 Jul 00:51:07 00:55:06 55° 287° (WNW) 00:59:02 437.445
Cosmos 2499 03 Jul 00:57:54 01:00:32 11° 282° (WNW) 01:02:32 435.465 / 435.565
QB50P2 03 Jul 00:58:59 01:02:41 29° 290° (WNW) 01:06:19 145.880/145.840
POPSAT HIP 1 03 Jul 01:00:11 01:03:52 29° 290° (WNW) 01:07:30 437.405
ANTELSAT 03 Jul 01:18:17 01:18:56 10° 298° (WNW) 01:19:20 437.575/2403.000
SPROUT 03 Jul 01:18:23 01:21:53 23° 266° (W) 01:25:18 437.525
Cosmos 2491 03 Jul 01:29:59 01:36:48 25° 63° (ENE) 01:43:50 435.465 / 435.565
QB50P1 03 Jul 01:41:06 01:42:51 12° 297° (WNW) 01:44:25 145.935-145.965
BEESAT 03 Jul 01:41:44 01:46:27 69° 74° (ENE) 01:51:14 436.000
KKS-1 03 Jul 01:49:34 01:51:59 15° 64° (ENE) 01:54:34 437.445
PCSat 03 Jul 01:50:06 01:55:33 75° 243° (WSW) 02:00:56 145.827
RS-15 03 Jul 01:55:37 02:05:06 38° 108° (ESE) 02:15:03 29.354- 29.394
SWISSCUBE 03 Jul 01:57:00 02:01:47 77° 256° (WSW) 02:06:37 437.505
SO-50 03 Jul 01:59:10 02:04:04 56° 52° (NE) 02:08:53 436.795
ITUPSAT 1 03 Jul 02:01:26 02:06:14 78° 258° (WSW) 02:11:04 437.325
YUBILEINY 03 Jul 02:08:49 02:13:16 16° 78° (ENE) 02:18:15 435.215
AIST 1 03 Jul 02:23:34 02:26:53 21° 71° (ENE) 02:30:17
Gurwin Techsat 1B 03 Jul 02:28:56 02:33:01 23° 92° (E) 02:37:13 435.225
Oscar 19 03 Jul 02:36:40 02:41:49 89° 99° (E) 02:46:58 437.125/150
STARS 03 Jul 02:44:15 02:48:08 32° 70° (ENE) 02:52:04 437.465
ITAMSAT 1 03 Jul 02:44:48 02:49:18 30° 95° (E) 02:53:51 435.822/435.867
BEESAT 03 Jul 03:22:39 03:24:53 13° 272° (W) 03:26:51 436.000
KKS-1 03 Jul 03:23:48 03:28:12 58° 259° (W) 03:32:37 437.445
Cosmos 2491 03 Jul 03:25:56 03:34:40 73° 266° (W) 03:43:17 435.465 / 435.565
MOZHAYETS 4 03 Jul 03:30:34 03:33:31 18° 65° (ENE) 03:36:36
SO-50 03 Jul 03:40:40 03:44:14 20° 249° (WSW) 03:47:37 436.795
YUBILEINY 03 Jul 04:00:12 04:08:53 83° 96° (E) 04:17:37 435.215
AIST 1 03 Jul 04:00:43 04:04:39 32° 269° (W) 04:08:30
RS-15 03 Jul 04:06:07 04:16:58 64° 311° (NW) 04:28:12 29.354- 29.394
Gurwin Techsat 1B 03 Jul 04:08:11 04:13:16 47° 290° (WNW) 04:18:19 435.225
HORYU 2 03 Jul 04:15:28 04:19:28 32° 96° (E) 04:23:30 437.375
Oscar 19 03 Jul 04:18:16 04:20:31 13° 300° (WNW) 04:22:32 437.125/150
JAS-2 03 Jul 04:19:30 04:26:01 66° 102° (ESE) 04:33:19 435.910
STARS 03 Jul 04:21:02 04:24:38 24° 266° (W) 04:28:09 437.465
ITAMSAT 1 03 Jul 04:24:08 04:28:52 35° 292° (WNW) 04:33:31 435.822/435.867
AO-7 03 Jul 04:49:09 04:57:24 59° 102° (ESE) 05:05:37 29.400- 29.500
MOZHAYETS 4 03 Jul 05:05:56 05:10:23 50° 261° (W) 05:14:52
Cosmos 2491 03 Jul 05:26:12 05:30:07 13° 284° (WNW) 05:33:22 435.465 / 435.565
CUBESAT XI-V 03 Jul 05:28:47 05:32:34 25° 68° (ENE) 05:36:29 437.345
Cosmos 2504 03 Jul 05:30:23 05:36:35 34° 87° (E) 05:42:54 435.465 / 435.565
STRAND 1 03 Jul 05:46:50 05:49:57 17° 62° (ENE) 05:53:15 437.568
HORYU 2 03 Jul 05:52:19 05:55:59 25° 292° (WNW) 05:59:35 437.375
YUBILEINY 03 Jul 06:00:29 06:07:00 22° 299° (WNW) 06:13:10 435.215
JAS-2 03 Jul 06:05:36 06:10:46 25° 295° (WNW) 06:16:10 435.910
PRISM 03 Jul 06:22:47 06:26:18 27° 69° (ENE) 06:29:54 437.425
RS-15 03 Jul 06:23:15 06:32:17 27° 341° (NNW) 06:41:27 29.354- 29.394
AO-7 03 Jul 06:42:30 06:49:52 35° 301° (WNW) 06:57:03 29.400- 29.500
CUSAT 1 03 Jul 06:47:26 06:48:41 11° 90° (E) 06:50:17 437.405
CUTE-I 03 Jul 06:47:36 06:52:34 38° 97° (E) 06:57:33 437.470
CUBESAT XI-V 03 Jul 07:05:34 07:09:53 35° 264° (W) 07:14:12 437.345
BEESAT 3 03 Jul 07:19:24 07:22:51 27° 115° (ESE) 07:26:22 437.485
Cubesat XI-IV 03 Jul 07:21:04 07:26:29 78° 103° (ESE) 07:31:51 437.490
Cosmos 2504 03 Jul 07:23:03 07:29:52 42° 286° (WNW) 07:36:36 435.465 / 435.565
STRAND 1 03 Jul 07:23:33 07:28:40 67° 259° (W) 07:33:49 437.568
BEESAT 2 03 Jul 07:29:26 07:32:55 28° 115° (ESE) 07:36:29 435.950
M-CUBED/EXP-1 PRIME 03 Jul 07:35:30 07:37:47 18° 62° (ENE) 07:40:13 437.505
DANDE 03 Jul 07:36:19 07:42:06 27° 93° (E) 07:47:04 436.750
O/OREOS (USA 219) 03 Jul 07:51:25 07:55:46 55° 109° (ESE) 08:00:09 437.305
PRISM 03 Jul 07:58:13 08:01:43 25° 265° (W) 08:05:12 437.425
ISS 03 Jul 08:14:26 08:16:58 22° 135° (SE) 08:19:33 145.825
CUSAT 1 03 Jul 08:24:23 08:31:09 82° 99° (E) 08:36:17 437.405
GOMX 1 03 Jul 08:25:26 08:28:33 20° 92° (E) 08:31:43 467.674
CUTE-I 03 Jul 08:27:56 08:32:32 29° 294° (WNW) 08:37:01 437.470
AUBIESAT-1 03 Jul 08:36:06 08:39:24 86° 249° (WSW) 08:42:50 437.475
GONETS M04 03 Jul 08:37:20 08:44:54 35° 86° (E) 08:52:36
AIST 2 03 Jul 08:37:59 08:41:53 37° 116° (ESE) 08:45:52 435.215
HO-68 03 Jul 08:38:27 08:44:11 26° 92° (E) 08:50:07 435.675
RS-15 03 Jul 08:40:54 08:49:47 25° 16° (NNE) 08:59:09 29.354- 29.394
BRITE-PL 03 Jul 08:42:02 08:46:20 55° 99° (E) 08:50:25 437.365/2234.400
CUTE 1.7 + AOD 2 03 Jul 08:42:23 08:45:17 18° 91° (E) 08:48:19 437.475
CANX-2 03 Jul 08:45:14 08:48:30 22° 93° (E) 08:51:52 2200.000
VERMONT LUNAR 03 Jul 08:46:52 08:49:42 31° 160° (SSE) 08:52:32 437.305
BEESAT 3 03 Jul 08:57:06 09:00:45 30° 312° (NW) 09:04:23 437.485
Cubesat XI-IV 03 Jul 09:02:49 09:06:00 16° 299° (WNW) 09:08:57 437.490
BEESAT 2 03 Jul 09:07:15 09:10:56 30° 312° (NW) 09:14:36 435.950
M-CUBED/EXP-1 PRIME 03 Jul 09:09:45 09:12:32 24° 259° (W) 09:15:20 437.505
DOVE 4 03 Jul 09:15:45 09:19:46 45° 98° (E) 09:23:46 437.250
DANDE 03 Jul 09:17:59 09:25:13 53° 283° (WNW) 09:30:48 436.750
TIGRISAT 03 Jul 09:18:12 09:18:47 10° 62° (ENE) 09:19:36 435.000
SEEDS 03 Jul 09:32:03 09:36:13 51° 99° (E) 09:40:23 437.485
O/OREOS (USA 219) 03 Jul 09:32:40 09:35:37 17° 308° (NW) 09:38:25 437.305
CUBEBUG 2 03 Jul 09:33:31 09:35:57 15° 91° (E) 09:38:35 437.445
ZACube-1 03 Jul 09:42:48 09:44:10 12° 88° (E) 09:45:47 437.345
AAUSAT CUBESAT 2 03 Jul 09:46:42 09:50:48 50° 99° (E) 09:54:55 437.432
Cosmos 2499 03 Jul 09:49:15 09:52:58 16° 81° (E) 09:57:06 435.465 / 435.565
ISS 03 Jul 09:50:04 09:53:12 46° 331° (NNW) 09:56:21 145.825
POLYITAN 1 03 Jul 09:50:24 09:50:30 10° 62° (ENE) 09:50:51 437.675
Oscar 11 03 Jul 09:53:00 09:56:40 27° 94° (E) 10:00:23 145.826/435.025
UNISAT 6 03 Jul 09:54:06 09:57:38 26° 69° (ENE) 10:01:13 437.425
